EJU58VL LIMC-LEPA

Flight info

Callsign EJU58VL
Flight time N/A
Altitude 35000
Route LAGEN9X LAGEN DCT ANAKI DCT IXITO DCT PIDAD DCT TALEP DCT BALEN UT250 RIXOT RIXOT1P
Aircraft A20N/M-VGDW/C

Departure

Time 2026-05-04 18:39
Airport Milan Malpensa International Airport (LIMC)

Arrival

Time N/A
Airport Palma de Mallorca Airport (LEPA)
Time Latitude Longitude Altitude Speed Heading
2026-05-04 18:23 45.64518 8.72352 769 ft 0 kts 349°
2026-05-04 18:27 45.64509 8.72355 769 ft 2 kts 349°
2026-05-04 18:28 45.64494 8.72359 769 ft 2 kts 349°
2026-05-04 18:28 45.64480 8.72363 768 ft 2 kts 349°
2026-05-04 18:28 45.64465 8.72367 768 ft 2 kts 357°
2026-05-04 18:28 45.64450 8.72361 767 ft 2 kts 36°
2026-05-04 18:29 45.64440 8.72345 767 ft 2 kts 68°
2026-05-04 18:29 45.64438 8.72335 767 ft 1 kts 85°
2026-05-04 18:29 45.64437 8.72329 766 ft 0 kts 80°
2026-05-04 18:32 45.64438 8.72334 767 ft 1 kts 79°
2026-05-04 18:32 45.64442 8.72370 767 ft 5 kts 85°
2026-05-04 18:33 45.64416 8.72428 766 ft 10 kts 161°
2026-05-04 18:33 45.64325 8.72455 762 ft 16 kts 169°
2026-05-04 18:33 45.64203 8.72489 760 ft 19 kts 169°
2026-05-04 18:33 45.64062 8.72529 755 ft 22 kts 165°
2026-05-04 18:34 45.63903 8.72579 751 ft 23 kts 169°
2026-05-04 18:34 45.63738 8.72624 746 ft 25 kts 169°
2026-05-04 18:34 45.63564 8.72672 741 ft 25 kts 169°
2026-05-04 18:34 45.63387 8.72722 739 ft 25 kts 169°
2026-05-04 18:35 45.63213 8.72770 735 ft 25 kts 169°
2026-05-04 18:35 45.63032 8.72818 731 ft 26 kts 169°
2026-05-04 18:35 45.62849 8.72870 727 ft 26 kts 169°
2026-05-04 18:35 45.62666 8.72921 725 ft 26 kts 170°
2026-05-04 18:36 45.62485 8.72970 720 ft 26 kts 168°
2026-05-04 18:36 45.62303 8.73024 716 ft 27 kts 169°
2026-05-04 18:36 45.62117 8.73073 711 ft 27 kts 169°
2026-05-04 18:36 45.61926 8.73126 706 ft 27 kts 169°
2026-05-04 18:37 45.61737 8.73177 702 ft 22 kts 169°
2026-05-04 18:37 45.61656 8.73199 700 ft 11 kts 167°
2026-05-04 18:37 45.61615 8.73291 697 ft 13 kts 78°
2026-05-04 18:37 45.61634 8.73429 697 ft 14 kts 95°
2026-05-04 18:38 45.61589 8.73560 696 ft 15 kts 101°
2026-05-04 18:38 45.61594 8.73706 697 ft 8 kts 84°
2026-05-04 18:38 45.61617 8.73741 698 ft 4 kts 349°
2026-05-04 18:38 45.61660 8.73728 698 ft 13 kts 348°
2026-05-04 18:39 45.62028 8.73626 707 ft 91 kts 349°
2026-05-04 18:39 45.62891 8.73387 722 ft 156 kts 348°
2026-05-04 18:39 45.64042 8.73066 1140 ft 174 kts 349°
2026-05-04 18:39 45.65223 8.72870 1931 ft 173 kts 359°
2026-05-04 18:40 45.66397 8.72872 2674 ft 175 kts 359°
2026-05-04 18:40 45.67660 8.72814 3219 ft 188 kts 359°
2026-05-04 18:40 45.69000 8.72765 3756 ft 199 kts 359°
2026-05-04 18:40 45.70419 8.72681 4254 ft 214 kts 358°
2026-05-04 18:41 45.71942 8.72409 4716 ft 233 kts 339°
2026-05-04 18:41 45.73228 8.70957 5389 ft 243 kts 303°
2026-05-04 18:41 45.73746 8.68687 6134 ft 248 kts 269°
2026-05-04 18:41 45.73368 8.66311 6940 ft 248 kts 245°
2026-05-04 18:42 45.72665 8.64061 7753 ft 251 kts 244°
2026-05-04 18:42 45.71976 8.61812 8605 ft 252 kts 243°
2026-05-04 18:42 45.71200 8.59586 9420 ft 253 kts 238°
2026-05-04 18:42 45.70278 8.57406 9961 ft 266 kts 235°
2026-05-04 18:43 45.69258 8.55114 10394 ft 283 kts 234°
2026-05-04 18:43 45.67968 8.52870 10799 ft 298 kts 220°
2026-05-04 18:43 45.66219 8.51196 11169 ft 313 kts 204°
2026-05-04 18:43 45.64171 8.49962 11606 ft 327 kts 201°
2026-05-04 18:44 45.62053 8.48761 12312 ft 332 kts 201°
2026-05-04 18:44 45.61332 8.48351 12574 ft 333 kts 201°
2026-05-04 18:44 45.57745 8.46289 13834 ft 337 kts 203°
2026-05-04 18:44 45.55569 8.45036 14542 ft 341 kts 201°
2026-05-04 18:45 45.53340 8.43899 15234 ft 344 kts 200°
2026-05-04 18:45 45.51085 8.42777 15903 ft 348 kts 201°
2026-05-04 18:45 45.48809 8.41646 16571 ft 350 kts 200°
2026-05-04 18:45 45.46492 8.40496 17209 ft 354 kts 201°
2026-05-04 18:46 45.44145 8.39333 17849 ft 358 kts 201°
2026-05-04 18:46 45.41799 8.38172 18473 ft 361 kts 201°
2026-05-04 18:46 45.39450 8.37009 19106 ft 363 kts 201°
2026-05-04 18:46 45.37052 8.35823 19712 ft 366 kts 201°
2026-05-04 18:47 45.34646 8.34636 20286 ft 369 kts 200°
2026-05-04 18:47 45.32225 8.33442 20899 ft 372 kts 200°
2026-05-04 18:47 45.29779 8.32238 21474 ft 375 kts 200°
2026-05-04 18:47 45.27309 8.31022 22063 ft 377 kts 200°
2026-05-04 18:48 45.24843 8.29810 22622 ft 380 kts 200°
2026-05-04 18:48 45.22329 8.28574 23185 ft 382 kts 200°
2026-05-04 18:48 45.19809 8.27338 23737 ft 385 kts 200°
2026-05-04 18:48 45.17296 8.26107 24280 ft 387 kts 200°
2026-05-04 18:49 45.14761 8.24866 24791 ft 390 kts 200°
2026-05-04 18:49 45.12096 8.23980 25253 ft 396 kts 188°
2026-05-04 18:49 45.09350 8.23891 25747 ft 401 kts 178°
2026-05-04 18:49 45.06557 8.24582 26204 ft 408 kts 169°
2026-05-04 18:50 45.03838 8.25591 26657 ft 411 kts 168°